This is the latest recevied weather packets stored in our database for station/object HB9TJM-8. If no packets are shown the sender has not sent any weather packets the latest 10 day(s).
| Time | Temp. | Humidity | Pressure | Rain* | Wind** | Luminosity | Snow |
|---|---|---|---|---|---|---|---|
| 1777961595 | 7.78° C | 98% | 1011.4 hPa | 0.51 mm | - | 57 W/m² | - |
| 1777960980 | 7.78° C | 98% | 1011.6 hPa | 0.76 mm | - | 48 W/m² | - |
| 1777960672 | 7.78° C | 98% | 1011.6 hPa | 1.02 mm | - | 48 W/m² | - |
| 1777960364 | 7.78° C | 98% | 1011.5 hPa | 1.02 mm | - | 47 W/m² | - |
| 1777960057 | 7.78° C | 98% | 1011.8 hPa | 1.27 mm | - | 42 W/m² | - |
| 1777959749 | 7.78° C | 98% | 1011.4 hPa | 1.27 mm | - | 32 W/m² | - |
| 1777958212 | 7.78° C | 98% | 1011.4 hPa | 1.27 mm | - | 16 W/m² | - |
| 1777957290 | 7.78° C | 98% | 1011.7 hPa | 1.02 mm | - | 7 W/m² | - |
| 1777956982 | 7.78° C | 98% | 1012 hPa | 1.02 mm | - | 6 W/m² | - |
| 1777956675 | 7.78° C | 98% | 1011.8 hPa | 1.02 mm | - | 5 W/m² | - |
| 1777956367 | 7.78° C | 98% | 1011.8 hPa | 1.02 mm | - | 3 W/m² | - |
| 1777956060 | 7.78° C | 98% | 1011.6 hPa | 1.02 mm | - | 3 W/m² | - |
| 1777955752 | 7.78° C | 98% | 1011.9 hPa | 1.02 mm | - | 2 W/m² | - |
| 1777954829 | 7.78° C | 97% | 1011.8 hPa | 1.02 mm | - | 0 W/m² | - |
| 1777954522 | 7.78° C | 97% | 1011.8 hPa | 0.76 mm | - | 0 W/m² | - |
| 1777953908 | 7.78° C | 97% | 1011.4 hPa | 0.76 mm | - | 0 W/m² | - |
| 1777952985 | 7.78° C | 96% | 1011.3 hPa | 1.27 mm | - | 0 W/m² | - |
| 1777952678 | 8.33° C | 96% | 1011.4 hPa | 1.27 mm | - | 0 W/m² | - |
| 1777952370 | 8.33° C | 96% | 1011.5 hPa | 1.52 mm | - | 0 W/m² | - |
| 1777952063 | 7.78° C | 97% | 1012 hPa | 1.52 mm | - | 0 W/m² | - |
| 1777951755 | 8.33° C | 97% | 1011.9 hPa | 1.78 mm | - | 0 W/m² | - |
| 1777951447 | 8.33° C | 97% | 1012 hPa | 1.78 mm | - | 0 W/m² | - |
| 1777950832 | 8.33° C | 96% | 1012.1 hPa | 2.03 mm | - | 0 W/m² | - |
| 1777950216 | 8.33° C | 97% | 1012.3 hPa | 2.29 mm | - | 0 W/m² | - |
| 1777949908 | 8.33° C | 97% | 1012.2 hPa | 2.29 mm | - | 0 W/m² | - |
* Rain latest hour (hover to see other rain measurements)
** Current wind speed in m/s (hover to see current wind gust speed)